Volver al catálogo

STARLINK-35832

ActivoComunicacionesVLEO
NORAD 66495·PAYLOAD·🇺🇸 United States

Lanzado Nov 15, 2025 desde Cape Canaveral Space Force Station

Loading…

Próximos Pases (próximas 24 horas)

TLE

ActualizadoSource: CelesTrak SupGP

Época: Sep 14, 2026, 22:39 UTC

1 66495C 25263L   26257.94423611 -.00012917  00000+0 -46782-3 0  2578
2 66495  43.0037   1.7933 0001513 271.0699 103.1998 15.27586518    16

Sigue STARLINK-35832 en tiempo real con AllMySat

Download on the App Store